Regional Weather Roundup
Issued by NWS Green Bay, WI

Home | Current Version | Previous Version | Graphics & Text | Print | Product List | Glossary Off
Versions: 1 2 3 4 5 6 7 8 9 10 11 12 13 14 15 16 17 18 19 20 21 22 23 24 25 26 27 28 29 30 31 32 33 34 35 36 37 38 39 40 41 42 43 44 45 46 47 48 49 50

000
ASUS43 KGRB 290500
RWRGRB

NORTH-CENTRAL AND NORTHEAST WISCONSIN REGIONAL WEATHER ROUNDUP
NATIONAL WEATHER SERVICE GREEN BAY WI
1200 AM CDT WED JUL 29 2015

WIZ005-009-010>012-018-019-290600-
NORTH CENTRAL WISCONSIN

CITY           SKY/WX    TMP DP  RH WIND       PRES   REMARKS
IRONWOOD       PTCLDY    75  72  88 S10G17    29.79S
MANITOWISH WTR NOT AVBL
ARBOR VITAE    NOT AVBL
EAGLE RIVER    NOT AVBL
LAND O LAKES   NOT AVBL
RHINELANDER    CLOUDY    74  69  85 S7        29.91S
PHILLIPS       NOT AVBL
ANTIGO         NOT AVBL
TOMAHAWK       NOT AVBL
MERRILL        NOT AVBL
$$

WIZ013-073-290600-
NORTHEAST WISCONSIN

CITY           SKY/WX    TMP DP  RH WIND       PRES   REMARKS
IRON MOUNTAIN  PTCLDY    71  64  78 SE3       29.89S
MARINETTE      PTCLDY    73  64  73 SW8       29.89R
$$

WIZ017-030-035>037-045-290600-
CENTRAL WISCONSIN

CITY           SKY/WX    TMP DP  RH WIND       PRES   REMARKS
MEDFORD        NOT AVBL
WAUSAU         MOCLDY    75  70  84 SW8       29.90R
MOSINEE        NOT AVBL
MARSHFIELD     CLOUDY    75  69  81 SW8       29.92R
WISC RAPIDS    CLOUDY    76  69  79 SW7       29.93R
STEVENS POINT  NOT AVBL
WAUPACA        NOT AVBL
SHAWANO        NOT AVBL
CLINTONVILLE   NOT AVBL
$$

WIZ038-039-048-051-290600-
FOX VALLEY

CITY           SKY/WX    TMP DP  RH WIND       PRES   REMARKS
NWS GREEN BAY  PTCLDY    74  68  81 S8        29.92R
APPLETON       NOT AVBL
OSHKOSH        MOCLDY    76  71  85 SW7       29.93R
FOND DU LAC    MOCLDY    75  71  87 SW6       29.94R
$$

WIZ022-050-052-290600-
EAST CENTRAL WISCONSIN

CITY           SKY/WX    TMP DP  RH WIND       PRES   REMARKS
STURGEON BAY   PTCLDY    72  63  73 S9        29.94R
MANITOWOC      NOT AVBL
SHEBOYGAN      PTCLDY    70  67  90 CALM      29.95R
$$

LMZ563-521-522-541>543-290600-
LAKESHORE

STATION/POSITION TIME  TEMP    WIND        PRES    VSBY  WAVE
                       AIR SEA DIR/SP/G                  HT/PER
                 (UTC) (F)     (DEG/KT/KT) (MB)    (MI)  (FT/S)
SHEBOYGAN LKSHOR 0400   72     190/  9/  9 1013.3F
KEWAUNEE LKSHORE 0400   66     190/  7/  8 1012.2F
NORTHPORT PIER   0400   74     160/  5/  7 1012.2F
N MID LAKE BUOY  0350   72 71  170/ 10/ 12 1012.4F         1
SISTER BAY LKSHO 0444   74     170/ 11/ 14   N/A
CHAMBERS ISLAND  0400   76     150/  5/ 11 1011.9F
MENOMINEE LKSHOR 0400   76     180/ 11/ 13 1012.8F
$$


USA.gov is the U.S. government's official web portal to all federal, state and local government web resources and services.